sat.trackr.live / text

‹ back to catalog

STARLINK-31313

NORAD 59088 · 2024-041Q

PAYLOAD ACTIVE UNKNOWN

§ Identity

Operator
Country
US
Launch date
2024-02-29
Launch site
AFETR
Launch vehicle
Mass (kg)
RCS (m²)

Purposes: comms

External: N2YO · Heavens-Above · Gunter

§ Orbital elements

Epoch: 2026-05-24T17:43:12.849024Z

Period
94.27 min
Inclination
43.0000°
Eccentricity
0.0001360
Mean motion
15.27584642 rev/d
Perigee alt
482.1 km
Apogee alt
484.0 km
Semi-major
6,861.2 km
B*
6.5718e-5
RAAN
241.0950°
Arg perigee
256.8354°
Mean anomaly
103.2345°
Rev number
12,590

§ Raw data

STARLINK-313131 59088U 24041Q   26144.73834316  .00001547  00000+0  65718-4 0  99902 59088  43.0000 241.0950 0001360 256.8354 103.2345 15.27584642125902

JSON: /api/v1/satellites/59088 · /tle

For live sub-satellite position, see the globe view (requires WebGL).

§ Visibility from observer

Set your observer location to see the next 7 days of passes ≥ 10°. The values pass through the URL so the page stays shareable.

No JS? Fill the form by hand. The geolocation button needs JavaScript.